User: anonymous   Login
Location: Unspecified
(0.0000°N, 0.0000°E)
Time: 14:24:19
(UTC+00:00)
Language:

NNS O-27 - Orbit

View from above orbital plane
View from above orbital plane
View from above satellite
View from above satellite

Ground track
Ground track

The orbit data is extracted from the following two-line orbital elements,

1 18361U 87080A   18172.05344542  .00000054  00000-0  73419-4 0  9995
2 18361  90.3212 347.5849 0106353 124.3115 236.8155 13.44457547508730
Epoch (UTC): 21 June 2018 01:16:57
Eccentricity: 0.0106353
inclination: 90.3212°
perigee height: 1013 km
apogee height: 1172 km
right ascension of ascending node: 347.5849°
argument of perigee: 124.3115°
revolutions per day: 13.44457547
mean anomaly at epoch: 236.8155°
orbit number at epoch: 50873

The dashed part of the orbit path shows where the satellite is in the earth's shadow,  

DLR